TimePST,TemperatureF,Dew PointF,Humidity,Sea Level PressureIn,VisibilityMPH,Wind Direction,Wind SpeedMPH,Gust SpeedMPH,PrecipitationIn,Events,Conditions,WindDirDegrees,DateUTC
12:53 AM,33.1,28.9,85,30.23,10.0,SSW,8.1,-,N/A,,Partly Cloudy,200,2012-12-04 08:53:00
1:53 AM,35.1,30.0,82,30.22,10.0,SSE,4.6,-,N/A,,Overcast,150,2012-12-04 09:53:00
2:53 AM,35.1,30.9,85,30.24,10.0,ENE,4.6,-,N/A,,Overcast,70,2012-12-04 10:53:00
3:53 AM,37.4,32.0,81,30.29,10.0,Calm,Calm,-,N/A,,Mostly Cloudy,0,2012-12-04 11:53:00
4:53 AM,39.9,33.1,77,30.25,10.0,SSW,15.0,-,N/A,,Overcast,210,2012-12-04 12:53:00
5:53 AM,37.9,33.1,83,30.30,10.0,East,5.8,-,N/A,,Overcast,100,2012-12-04 13:53:00
6:53 AM,39.9,33.1,77,30.32,10.0,Calm,Calm,-,N/A,,Mostly Cloudy,0,2012-12-04 14:53:00
7:53 AM,37.9,33.1,83,30.35,10.0,East,4.6,-,N/A,,Overcast,80,2012-12-04 15:53:00
8:53 AM,39.9,34.0,79,30.35,10.0,Calm,Calm,-,N/A,,Partly Cloudy,0,2012-12-04 16:53:00
9:53 AM,46.4,33.8,62,30.36,10.0,SSW,12.7,-,N/A,,Scattered Clouds,200,2012-12-04 17:53:00
10:53 AM,48.9,33.1,54,30.30,10.0,SSW,9.2,-,N/A,,Partly Cloudy,200,2012-12-04 18:53:00
11:53 AM,48.9,35.1,59,30.27,10.0,South,9.2,-,N/A,,Overcast,190,2012-12-04 19:53:00
12:53 PM,50.0,34.0,54,30.22,10.0,South,9.2,-,N/A,,Partly Cloudy,190,2012-12-04 20:53:00
1:53 PM,50.0,37.0,61,30.22,10.0,East,4.6,-,N/A,,Overcast,90,2012-12-04 21:53:00
2:53 PM,48.9,35.1,59,30.20,10.0,SW,8.1,-,N/A,,Overcast,230,2012-12-04 22:53:00
3:53 PM,46.9,35.1,63,30.18,10.0,Calm,Calm,-,N/A,,Overcast,0,2012-12-04 23:53:00
4:53 PM,44.1,35.1,71,30.20,10.0,South,3.5,-,N/A,,Clear,190,2012-12-05 00:53:00
5:53 PM,44.1,34.0,68,30.20,10.0,South,13.8,-,N/A,,Clear,190,2012-12-05 01:53:00
6:53 PM,42.1,33.1,70,30.21,10.0,SSW,9.2,-,N/A,,Clear,200,2012-12-05 02:53:00
7:53 PM,44.1,30.9,60,30.21,10.0,SSW,17.3,-,N/A,,Overcast,200,2012-12-05 03:53:00
8:53 PM,44.1,30.0,58,30.19,10.0,SW,13.8,21.9,N/A,,Scattered Clouds,230,2012-12-05 04:53:00
9:53 PM,43.0,32.0,65,30.17,10.0,WSW,9.2,-,N/A,,Overcast,250,2012-12-05 05:53:00
10:53 PM,41.0,32.0,70,30.14,10.0,SSW,11.5,-,N/A,,Overcast,210,2012-12-05 06:53:00
11:05 PM,42.8,30.2,61,30.24,10.0,SSW,12.7,-,N/A,,Overcast,210,2012-12-05 07:05:00
11:53 PM,43.0,30.0,60,30.13,10.0,SW,10.4,-,N/A,,Overcast,220,2012-12-05 07:53:00